| time (UTC) | temp C | wind direction | speed KPH | gust KPH | rain 1hr cm | rain 24hr cm | rain mn cm | humidity % | barometer mb |
| 20260503223843 | 30 | 300 | 3.2 | 3.2 | 0.00 | 0.00 | 0.00 | 39 | 991.1 |
| 20260503223341 | 30 | 327 | 11.3 | 14.5 | 0.00 | 0.00 | 0.00 | 39 | 991.0 |
| 20260503222836 | 30 | 313 | 9.7 | 11.3 | 0.00 | 0.00 | 0.00 | 39 | 991.3 |
| 20260503222335 | 30 | 299 | 8.0 | 9.7 | 0.00 | 0.00 | 0.00 | 36 | 991.3 |
| 20260503221832 | 30 | 317 | 8.0 | 9.7 | 0.00 | 0.00 | 0.00 | 35 | 991.2 |
| 20260503221331 | 30 | 293 | 9.7 | 11.3 | 0.00 | 0.00 | 0.00 | 42 | 991.4 |
| 20260503220826 | 30 | 290 | 4.8 | 8.0 | 0.00 | 0.00 | 0.00 | 37 | 991.4 |
| 20260503220323 | 30 | 335 | 6.4 | 8.0 | 0.00 | 0.00 | 0.00 | 41 | 991.6 |
| 20260503215815 | 30 | 88 | 1.6 | 1.6 | 0.00 | 0.00 | 0.00 | 43 | 991.4 |
| 20260503215312 | 30 | 258 | 3.2 | 3.2 | 0.00 | 0.00 | 0.00 | 35 | 991.8 |
| 20260503214810 | 30 | 303 | 3.2 | 3.2 | 0.00 | 0.00 | 0.00 | 40 | 991.7 |
| 20260503214306 | 30 | 317 | 1.6 | 1.6 | 0.00 | 0.00 | 0.00 | 39 | 991.8 |
| 20260503213803 | 30 | 313 | 4.8 | 4.8 | 0.00 | 0.00 | 0.00 | 39 | 991.9 |
| 20260503213300 | 29 | 339 | 1.6 | 3.2 | 0.00 | 0.00 | 0.00 | 41 | 991.7 |
| 20260503212757 | 29 | 300 | 4.8 | 8.0 | 0.00 | 0.00 | 0.00 | 40 | 992.0 |
| 20260503212255 | 30 | 54 | 3.2 | 3.2 | 0.00 | 0.00 | 0.00 | 38 | 992.0 |
| 20260503211753 | 30 | 286 | 4.8 | 4.8 | 0.00 | 0.00 | 0.00 | 45 | 992.0 |
| 20260503211248 | 30 | 310 | 4.8 | 8.0 | 0.00 | 0.00 | 0.00 | 42 | 991.7 |
| 20260503210744 | 30 | 292 | 3.2 | 3.2 | 0.00 | 0.00 | 0.00 | 43 | 991.9 |
| 20260503210242 | 30 | 22 | 1.6 | 1.6 | 0.00 | 0.00 | 0.00 | 36 | 992.0 |
| 20260503205742 | 30 | 320 | 1.6 | 3.2 | 0.00 | 0.00 | 0.00 | 40 | 992.0 |
| 20260503205239 | 30 | 240 | 3.2 | 3.2 | 0.00 | 0.00 | 0.00 | 45 | 991.9 |
| 20260503204735 | 30 | 293 | 3.2 | 4.8 | 0.00 | 0.00 | 0.00 | 38 | 992.0 |
| 20260503204233 | 29 | 292 | 1.6 | 1.6 | 0.00 | 0.00 | 0.00 | 44 | 992.1 |
| 20260503203730 | 28 | 326 | 4.8 | 4.8 | 0.00 | 0.00 | 0.00 | 38 | 992.1 |
| 20260503203227 | 29 | 334 | 6.4 | 8.0 | 0.00 | 0.00 | 0.00 | 41 | 992.2 |
| 20260503202724 | 29 | 333 | 8.0 | 11.3 | 0.00 | 0.00 | 0.00 | 42 | 992.4 |
| 20260503202222 | 28 | 302 | 3.2 | 3.2 | 0.00 | 0.00 | 0.00 | 42 | 992.6 |
| 20260503201720 | 28 | 319 | 8.0 | 12.9 | 0.00 | 0.00 | 0.00 | 44 | 992.4 |
| 20260503201217 | 28 | 265 | 1.6 | 1.6 | 0.00 | 0.00 | 0.00 | 43 | 992.5 |
| 20260503200713 | 29 | 333 | 6.4 | 11.3 | 0.00 | 0.00 | 0.00 | 43 | 992.8 |
| 20260503200210 | 30 | 281 | 1.6 | 1.6 | 0.00 | 0.00 | 0.00 | 50 | 992.4 |
| 20260503195707 | 28 | 17 | 1.6 | 1.6 | 0.00 | 0.00 | 0.00 | 42 | 992.7 |
| 20260503195204 | 28 | 330 | 6.4 | 8.0 | 0.00 | 0.00 | 0.00 | 46 | 992.8 |
| 20260503194701 | 28 | 324 | 4.8 | 4.8 | 0.00 | 0.00 | 0.00 | 44 | 992.9 |
| 20260503194156 | 28 | 251 | 1.6 | 1.6 | 0.00 | 0.00 | 0.00 | 47 | 992.8 |
| 20260503193653 | 29 | 4 | 1.6 | 1.6 | 0.00 | 0.00 | 0.00 | 54 | 993.0 |
| 20260503193149 | 28 | 186 | 1.6 | 1.6 | 0.00 | 0.00 | 0.00 | 54 | 992.7 |
| 20260503192645 | 28 | 223 | 1.6 | 1.6 | 0.00 | 0.00 | 0.00 | 49 | 993.0 |
| 20260503192140 | 28 | 214 | 1.6 | 1.6 | 0.00 | 0.00 | 0.00 | 48 | 993.1 |
| 20260503191637 | 28 | 267 | 1.6 | 3.2 | 0.00 | 0.00 | 0.00 | 51 | 993.1 |
| 20260503191134 | 28 | 11 | 1.6 | 1.6 | 0.00 | 0.00 | 0.00 | 50 | 993.2 |
| 20260503190631 | 27 | 196 | 6.4 | 8.0 | 0.00 | 0.00 | 0.00 | 53 | 993.2 |
| 20260503190128 | 27 | 305 | 6.4 | 8.0 | 0.00 | 0.00 | 0.00 | 56 | 993.2 |
| 20260503185625 | 27 | 331 | 6.4 | 8.0 | 0.00 | 0.00 | 0.00 | 54 | 993.2 |
| 20260503185120 | 27 | 342 | 6.4 | 9.7 | 0.00 | 0.00 | 0.00 | 52 | 993.1 |
| 20260503184615 | 27 | 296 | 4.8 | 4.8 | 0.00 | 0.00 | 0.00 | 52 | 993.6 |
| 20260503184112 | 27 | 320 | 6.4 | 9.7 | 0.00 | 0.00 | 0.00 | 55 | 993.6 |
| 20260503183609 | 27 | 354 | 3.2 | 3.2 | 0.00 | 0.00 | 0.00 | 58 | 993.5 |
| 20260503183106 | 27 | 2 | 4.8 | 4.8 | 0.00 | 0.00 | 0.00 | 52 | 993.4 |
| 20260503182604 | 27 | 284 | 3.2 | 3.2 | 0.00 | 0.00 | 0.00 | 56 | 993.5 |
| 20260503182102 | 27 | 62 | 1.6 | 3.2 | 0.00 | 0.00 | 0.00 | 50 | 993.4 |
| 20260503181559 | 27 | 9 | 1.6 | 3.2 | 0.00 | 0.00 | 0.00 | 50 | 993.6 |
| 20260503181055 | 26 | 331 | 0.0 | 0.0 | 0.00 | 0.00 | 0.00 | 51 | 993.6 |
| 20260503180552 | 27 | 30 | 1.6 | 1.6 | 0.00 | 0.00 | 0.00 | 52 | 993.8 |
| 20260503180050 | 26 | 332 | 3.2 | 3.2 | 0.00 | 0.00 | 0.00 | 53 | 993.8 |
| 20260503175547 | 26 | 4 | 1.6 | 1.6 | 0.00 | 0.00 | 0.00 | 53 | 993.7 |
| 20260503175044 | 26 | 280 | 1.6 | 1.6 | 0.00 | 0.00 | 0.00 | 58 | 993.9 |
| 20260503174541 | 26 | 334 | 0.0 | 0.0 | 0.00 | 0.00 | 0.00 | 55 | 993.9 |
| 20260503174037 | 25 | 331 | 0.0 | 1.6 | 0.00 | 0.00 | 0.00 | 55 | 994.0 |
| 20260503173532 | 25 | 4 | 4.8 | 4.8 | 0.00 | 0.00 | 0.00 | 53 | 993.9 |
| 20260503173029 | 25 | 331 | 1.6 | 1.6 | 0.00 | 0.00 | 0.00 | 54 | 993.9 |
| 20260503172527 | 25 | 170 | 0.0 | 1.6 | 0.00 | 0.00 | 0.00 | 55 | 994.0 |
| 20260503172024 | 24 | 6 | 1.6 | 1.6 | 0.00 | 0.00 | 0.00 | 51 | 994.1 |
| 20260503171520 | 23 | 29 | 3.2 | 3.2 | 0.00 | 0.00 | 0.00 | 54 | 994.2 |
| 20260503171018 | 23 | 341 | 1.6 | 1.6 | 0.00 | 0.00 | 0.00 | 56 | 994.1 |
| 20260503170514 | 23 | 2 | 4.8 | 4.8 | 0.00 | 0.00 | 0.00 | 52 | 994.1 |
| 20260503150906 | 18 | 58 | 3.2 | 3.2 | 0.00 | 0.00 | 0.00 | 62 | 994.6 |
| 20260503150403 | 18 | 42 | 0.0 | 0.0 | 0.00 | 0.00 | 0.00 | 65 | 994.4 |
| 20260503131256 | 14 | 28 | 3.2 | 3.2 | 0.00 | 0.00 | 0.00 | 77 | 993.7 |
| 20260503130753 | 14 | 50 | 1.6 | 1.6 | 0.00 | 0.00 | 0.00 | 77 | 994.0 |
| 20260503130251 | 14 | 36 | 4.8 | 8.0 | 0.00 | 0.00 | 0.00 | 78 | 993.8 |
| 20260503120217 | 13 | 356 | 3.2 | 3.2 | 0.00 | 0.00 | 0.00 | 89 | 994.5 |
| 20260503110644 | 13 | 49 | 1.6 | 1.6 | 0.00 | 0.00 | 0.00 | 85 | 994.5 |
| 20260503110141 | 13 | 76 | 0.0 | 0.0 | 0.00 | 0.00 | 0.00 | 85 | 994.4 |
| 20260503100108 | 15 | 170 | 1.6 | 1.6 | 0.00 | 0.00 | 0.00 | 83 | 994.5 |
| 20260503081457 | 15 | 103 | 0.0 | 0.0 | 0.00 | 0.00 | 0.00 | 88 | 994.7 |
| 20260503080954 | 15 | 109 | 1.6 | 1.6 | 0.00 | 0.00 | 0.00 | 88 | 994.7 |
| 20260503080450 | 15 | 87 | 1.6 | 3.2 | 0.00 | 0.00 | 0.00 | 88 | 994.7 |
| 20260503072927 | 16 | 259 | 0.0 | 0.0 | 0.00 | 0.00 | 0.00 | 86 | 994.7 |
| 20260503072425 | 16 | 267 | 0.0 | 1.6 | 0.00 | 0.00 | 0.00 | 85 | 994.6 |
| 20260503071921 | 16 | 321 | 3.2 | 3.2 | 0.00 | 0.00 | 0.00 | 86 | 994.8 |
| 20260503071419 | 16 | 23 | 0.0 | 0.0 | 0.00 | 0.00 | 0.00 | 85 | 994.7 |
| 20260503070915 | 16 | 63 | 0.0 | 0.0 | 0.00 | 0.00 | 0.00 | 84 | 994.6 |
| 20260503070412 | 16 | 27 | 1.6 | 3.2 | 0.00 | 0.00 | 0.00 | 84 | 994.6 |
| 20260503060338 | 15 | 2 | 1.6 | 1.6 | 0.00 | 0.00 | 0.00 | 86 | 995.1 |
| 20260503054825 | 15 | 2 | 1.6 | 1.6 | 0.00 | 0.00 | 0.00 | 86 | 995.1 |
| 20260503054321 | 15 | 2 | 0.0 | 0.0 | 0.00 | 0.00 | 0.00 | 86 | 995.2 |
| 20260503053819 | 15 | 2 | 0.0 | 1.6 | 0.00 | 0.00 | 0.00 | 85 | 995.3 |
| 20260503053317 | 15 | 2 | 1.6 | 1.6 | 0.00 | 0.00 | 0.00 | 87 | 995.3 |
| 20260503052813 | 15 | 2 | 1.6 | 1.6 | 0.00 | 0.00 | 0.00 | 87 | 995.1 |
| 20260503052311 | 15 | 2 | 0.0 | 1.6 | 0.00 | 0.00 | 0.00 | 87 | 995.0 |
| 20260503051806 | 15 | 2 | 1.6 | 3.2 | 0.00 | 0.00 | 0.00 | 87 | 995.1 |
| 20260503051303 | 15 | 14 | 1.6 | 1.6 | 0.00 | 0.00 | 0.00 | 85 | 995.2 |
| 20260503050800 | 16 | 101 | 0.0 | 0.0 | 0.00 | 0.00 | 0.00 | 84 | 995.4 |
| 20260503050759 | 16 | 101 | 0.0 | 0.0 | 0.00 | 0.00 | 0.00 | 84 | 995.4 |
| 20260503050256 | 15 | 101 | 0.0 | 0.0 | 0.00 | 0.00 | 0.00 | 85 | 995.3 |
| 20260503045754 | 15 | 101 | 0.0 | 0.0 | 0.00 | 0.00 | 0.00 | 85 | 995.1 |
| 20260503045251 | 16 | 101 | 0.0 | 0.0 | 0.00 | 0.00 | 0.00 | 84 | 995.0 |
| 20260503044747 | 16 | 104 | 0.0 | 1.6 | 0.00 | 0.00 | 0.00 | 84 | 995.2 |
| 20260503044244 | 16 | 104 | 0.0 | 0.0 | 0.00 | 0.00 | 0.00 | 83 | 995.3 |
| 20260503043742 | 16 | 104 | 1.6 | 1.6 | 0.00 | 0.00 | 0.00 | 83 | 995.1 |
| 20260503043239 | 16 | 111 | 0.0 | 0.0 | 0.00 | 0.00 | 0.00 | 81 | 995.2 |
| 20260503042734 | 17 | 111 | 0.0 | 0.0 | 0.00 | 0.00 | 0.00 | 80 | 995.3 |
| 20260503042226 | 17 | 137 | 0.0 | 0.0 | 0.00 | 0.00 | 0.00 | 80 | 995.2 |
| 20260503041722 | 17 | 169 | 0.0 | 0.0 | 0.00 | 0.00 | 0.00 | 79 | 995.0 |
| 20260503041220 | 17 | 91 | 3.2 | 4.8 | 0.00 | 0.00 | 0.00 | 78 | 995.2 |
| 20260503040717 | 18 | 125 | 1.6 | 1.6 | 0.00 | 0.00 | 0.00 | 77 | 995.0 |
| 20260503040214 | 18 | 151 | 3.2 | 3.2 | 0.00 | 0.00 | 0.00 | 75 | 995.0 |
| 20260503035711 | 18 | 182 | 4.8 | 4.8 | 0.00 | 0.00 | 0.00 | 74 | 995.0 |
| 20260503035208 | 18 | 213 | 4.8 | 8.0 | 0.00 | 0.00 | 0.00 | 74 | 994.7 |
| 20260503034706 | 18 | 189 | 4.8 | 4.8 | 0.00 | 0.00 | 0.00 | 73 | 994.7 |
| 20260503034203 | 19 | 214 | 6.4 | 8.0 | 0.00 | 0.00 | 0.00 | 73 | 994.6 |
| 20260503033700 | 19 | 196 | 6.4 | 8.0 | 0.00 | 0.00 | 0.00 | 72 | 994.5 |
| 20260503033158 | 20 | 179 | 3.2 | 3.2 | 0.00 | 0.00 | 0.00 | 72 | 994.6 |
| 20260503032656 | 20 | 176 | 4.8 | 8.0 | 0.00 | 0.00 | 0.00 | 71 | 994.4 |
| 20260503032154 | 20 | 176 | 4.8 | 4.8 | 0.00 | 0.00 | 0.00 | 70 | 994.3 |
| 20260503031651 | 20 | 134 | 1.6 | 3.2 | 0.00 | 0.00 | 0.00 | 69 | 994.2 |
| 20260503031149 | 20 | 168 | 3.2 | 4.8 | 0.00 | 0.00 | 0.00 | 69 | 994.1 |
| 20260503030644 | 21 | 155 | 4.8 | 4.8 | 0.00 | 0.00 | 0.00 | 67 | 994.0 |
| 20260503030142 | 21 | 169 | 4.8 | 4.8 | 0.00 | 0.00 | 0.00 | 67 | 993.8 |
| 20260503025638 | 21 | 194 | 4.8 | 4.8 | 0.00 | 0.00 | 0.00 | 68 | 994.0 |
| 20260503025136 | 21 | 180 | 4.8 | 4.8 | 0.00 | 0.00 | 0.00 | 67 | 993.6 |
| 20260503024632 | 21 | 187 | 1.6 | 3.2 | 0.00 | 0.00 | 0.00 | 67 | 993.3 |
| 20260503024129 | 21 | 161 | 1.6 | 1.6 | 0.00 | 0.00 | 0.00 | 68 | 993.2 |
| 20260503023626 | 21 | 130 | 1.6 | 3.2 | 0.00 | 0.00 | 0.00 | 68 | 993.3 |
| 20260503023123 | 21 | 150 | 1.6 | 3.2 | 0.00 | 0.00 | 0.00 | 67 | 993.3 |
| 20260503022619 | 21 | 158 | 1.6 | 1.6 | 0.00 | 0.00 | 0.00 | 68 | 993.2 |
| 20260503022114 | 22 | 166 | 1.6 | 1.6 | 0.00 | 0.00 | 0.00 | 67 | 993.0 |
| 20260503021611 | 22 | 173 | 1.6 | 3.2 | 0.00 | 0.00 | 0.00 | 65 | 993.2 |
| 20260503021108 | 22 | 164 | 1.6 | 1.6 | 0.00 | 0.00 | 0.00 | 65 | 993.1 |
| 20260503020605 | 22 | 149 | 1.6 | 1.6 | 0.00 | 0.00 | 0.00 | 65 | 992.9 |
| 20260503015559 | 22 | 153 | 3.2 | 3.2 | 0.00 | 0.00 | 0.00 | 63 | 992.7 |
| 20260503015056 | 22 | 188 | 1.6 | 1.6 | 0.00 | 0.00 | 0.00 | 64 | 992.9 |
| 20260503014551 | 22 | 182 | 3.2 | 3.2 | 0.00 | 0.00 | 0.00 | 64 | 992.8 |
| 20260503014050 | 23 | 166 | 0.0 | 1.6 | 0.00 | 0.00 | 0.00 | 66 | 992.9 |
| 20260503013547 | 23 | 199 | 1.6 | 1.6 | 0.00 | 0.00 | 0.00 | 64 | 992.9 |
| 20260503013044 | 23 | 147 | 1.6 | 1.6 | 0.00 | 0.00 | 0.00 | 66 | 992.8 |
| 20260503012542 | 23 | 193 | 1.6 | 1.6 | 0.00 | 0.00 | 0.00 | 63 | 993.0 |
| 20260503012038 | 23 | 183 | 4.8 | 4.8 | 0.00 | 0.00 | 0.00 | 63 | 993.0 |
| 20260503011534 | 23 | 167 | 3.2 | 4.8 | 0.00 | 0.00 | 0.00 | 63 | 992.8 |
| 20260503011032 | 23 | 146 | 3.2 | 3.2 | 0.00 | 0.00 | 0.00 | 65 | 992.9 |
| 20260503010528 | 23 | 181 | 3.2 | 3.2 | 0.00 | 0.00 | 0.00 | 62 | 992.9 |
| 20260503010026 | 23 | 197 | 1.6 | 1.6 | 0.00 | 0.00 | 0.00 | 63 | 993.1 |
| 20260503005523 | 23 | 201 | 3.2 | 3.2 | 0.00 | 0.00 | 0.00 | 63 | 992.8 |
| 20260503005020 | 23 | 163 | 1.6 | 3.2 | 0.00 | 0.00 | 0.00 | 63 | 992.9 |
| 20260503004516 | 23 | 165 | 3.2 | 3.2 | 0.00 | 0.00 | 0.00 | 63 | 993.2 |
| 20260503004014 | 23 | 220 | 3.2 | 4.8 | 0.00 | 0.00 | 0.00 | 65 | 993.0 |
| 20260503003510 | 23 | 301 | 1.6 | 1.6 | 0.00 | 0.00 | 0.00 | 60 | 993.1 |
| 20260503003008 | 23 | 312 | 0.0 | 0.0 | 0.00 | 0.00 | 0.00 | 60 | 993.0 |
| 20260503002505 | 23 | 217 | 1.6 | 1.6 | 0.00 | 0.00 | 0.00 | 59 | 993.3 |
| 20260503002001 | 23 | 176 | 1.6 | 1.6 | 0.00 | 0.00 | 0.00 | 61 | 993.2 |
| 20260503001458 | 24 | 318 | 1.6 | 1.6 | 0.00 | 0.00 | 0.00 | 62 | 993.3 |
| 20260503000955 | 24 | 323 | 0.0 | 1.6 | 0.00 | 0.00 | 0.00 | 62 | 993.2 |
| 20260503000452 | 23 | 301 | 1.6 | 1.6 | 0.00 | 0.00 | 0.00 | 61 | 993.3 |
| 20260502235950 | 23 | 318 | 8.0 | 9.7 | 0.00 | 0.00 | 0.00 | 60 | 993.4 |
| 20260502235446 | 23 | 300 | 4.8 | 4.8 | 0.00 | 0.00 | 0.00 | 62 | 993.3 |
| 20260502234944 | 23 | 275 | 1.6 | 1.6 | 0.00 | 0.00 | 0.00 | 60 | 993.3 |
| 20260502234440 | 23 | 325 | 4.8 | 4.8 | 0.00 | 0.00 | 0.00 | 65 | 993.5 |
| 20260502233937 | 23 | 290 | 3.2 | 3.2 | 0.00 | 0.00 | 0.00 | 63 | 993.5 |
| 20260502233432 | 23 | 271 | 0.0 | 1.6 | 0.00 | 0.00 | 0.00 | 62 | 993.5 |
| 20260502232930 | 22 | 355 | 0.0 | 1.6 | 0.00 | 0.00 | 0.00 | 68 | 993.6 |
| 20260502232426 | 22 | 259 | 3.2 | 4.8 | 0.00 | 0.00 | 0.00 | 67 | 993.7 |
| 20260502231923 | 22 | 187 | 3.2 | 3.2 | 0.00 | 0.00 | 0.00 | 63 | 993.7 |
| 20260502231420 | 22 | 242 | 3.2 | 3.2 | 0.00 | 0.00 | 0.00 | 66 | 993.7 |
| 20260502230918 | 22 | 283 | 1.6 | 3.2 | 0.00 | 0.00 | 0.00 | 66 | 994.0 |
| 20260502230416 | 22 | 224 | 1.6 | 1.6 | 0.00 | 0.00 | 0.00 | 64 | 994.1 |
| 20260502225914 | 21 | 274 | 4.8 | 4.8 | 0.00 | 0.00 | 0.00 | 71 | 994.3 |
| 20260502225409 | 21 | 345 | 4.8 | 4.8 | 0.00 | 0.00 | 0.00 | 70 | 994.4 |
| 20260502224907 | 21 | 280 | 3.2 | 3.2 | 0.00 | 0.00 | 0.00 | 75 | 994.3 |
| 20260502224402 | 20 | 310 | 1.6 | 1.6 | 0.00 | 0.00 | 0.00 | 71 | 994.3 |